Location: Festilli
(46.4000°N, 11.6667°E)
Time: 18:45:04
(UTC+00:00)

Cosmos 2219 Rocket - Pass Details

Date: 03 March 2021
Orbit: 826 x 848 km, 71.0° (Epoch: 14 April)

Event Time Altitude Azimuth Distance (km) Brightness Sun altitude
Rises 19:23:41 0° 204° (SSW) 3,353 5.4 -24.9°
Reaches altitude 10° 19:26:06 10° 204° (SSW) 2,425 4.6 -25.3°
Maximum altitude 19:31:40 89° 113° (ESE) 837 2.0 -26.2°
Drops below altitude 10° 19:37:18 10° 27° (NNE) 2,452 4.5 -27.1°
Sets 19:39:45 0° 27° (NNE) 3,393 5.3 -27.5°
